Location: Drocourt
(49.0571°N, 1.7669°E)
Time: 15:49:59
(UTC+00:00)

SR - Pass Details

Date: 29 April 2024
Orbit: 579 x 860 km, 66.7° (Epoch: 22 May)

Event Time Altitude Azimuth Distance (km) Brightness Sun altitude
Exits shadow 23:40:41 87° 223° (SW) 759 ? -26.0°
Maximum altitude 23:40:47 90° 306° (NW) 757 ? -26.0°
Drops below altitude 10° 23:45:48 10° 36° (NE) 2,186 ? -26.1°
Sets 23:48:03 0° 36° (NE) 3,063 ? -26.1°
